BLACKJACK ACES-3

导读

BLACKJACK ACES-3是美国DARPA Blackjack项目下的军用试验卫星,于2023年6月12日发射升空,是该项目的后续验证卫星,旨在推进低轨星座军事技术验证,测试新型空间通信、感知技术,为美国打造军事分布式太空架构,提升战场空间态势感知与战术通信能力,支撑下一代低轨军事卫星网络建设,增强美军太空体系弹性与作战响应能力。

Basic Information
目录编号:
56950
目录名称:
BLACKJACK ACES-3
国际标识:
2023-084U
轨道中心:
EARTH
卫星名称:
BLACKJACK ACES-3
卫星全名:
--
卫星状态:
在轨 (已飞行1188 天)
发射日期:
2023-06-12 UTC
国别 :
美国 (US)
星等 :
--
This satellite is enrolled in the Space Conjunction Data Service (SCDS) and the current flight risk assessment level is: No High Risk
Orbit Information
数据来源 国际轨道数据
星历时间: 2026-09-12T06:33:46+0800
17小时前
查看轨道信息
半长轴: 6887.706km
偏心率: 0.0002875
轨道倾角: 97.633°
近地点辐角 90.451°
升交点赤经 30.886°
平近点角 269.705°
近地点: 507.588km
远地点: 511.55km
周期: 94.814分钟
每日圈数: 15.187663
Detailed Information
使用方式:
暂无
2D Orbit Map
3D Orbit Map
Orbit Altitude Analysis Chart
Orbit Inclination Analysis Chart
Orbit Comprehensive Analysis Chart
View Comprehensive Chart
Conjunction Data List
Event ID Objects TCA Miss Dist (km) Collision Risk Probability Collision Risk Index (CRI) Action
CDM_260913-023605-695006-837521
2026-09-13T
02:36:17+0000
1.343 km
极远距离
8.637575E-6 低风险 0.54
CDM_260905-063005-695005-992123
OBJECT E (59921)
2026-09-05T
06:30:57+0000
1.409 km
极远距离
7.57102E-6 低风险 0.53
CDM_260913-112105-695005-884822
2026-09-13T
11:21:06+0000
2.516 km
极远距离
1.349141E-6 低风险 0.38
Miss Distance Evolution Trend with All Objects
Collision Probability Evolution Trend with All Objects